N222HL KIND-KMKE

Flight info

Callsign N222HL
Flight time 0h 40m
Altitude 34000
Route MEARZ7 BVT CGT BRAVE EXARR
Aircraft CL60/M-SBDE1E2E3FGHIJ1J4J5J7M3RWXYZ/LB1V1D1

Departure

Time 2026-04-26 01:42
Airport Indianapolis International Airport (KIND)

Arrival

Time 2026-04-26 02:23
Airport General Mitchell International Airport (KMKE)
Time Latitude Longitude Altitude Speed Heading
2026-04-26 01:16 39.72329 -86.26970 781 ft 0 kts 225°
2026-04-26 01:34 39.72297 -86.27026 782 ft 5 kts 238°
2026-04-26 01:34 39.72245 -86.27012 782 ft 22 kts 140°
2026-04-26 01:34 39.72158 -86.26914 780 ft 12 kts 168°
2026-04-26 01:34 39.72075 -86.26990 779 ft 16 kts 225°
2026-04-26 01:35 39.72001 -86.27107 780 ft 16 kts 249°
2026-04-26 01:35 39.71958 -86.27246 783 ft 16 kts 247°
2026-04-26 01:35 39.71981 -86.27372 785 ft 15 kts 316°
2026-04-26 01:35 39.72007 -86.27483 785 ft 15 kts 231°
2026-04-26 01:36 39.71939 -86.27606 785 ft 18 kts 250°
2026-04-26 01:36 39.71909 -86.27724 786 ft 10 kts 257°
2026-04-26 01:36 39.71841 -86.27825 785 ft 25 kts 225°
2026-04-26 01:37 39.71593 -86.28223 787 ft 29 kts 240°
2026-04-26 01:37 39.71451 -86.28422 788 ft 30 kts 225°
2026-04-26 01:37 39.71292 -86.28625 789 ft 32 kts 225°
2026-04-26 01:37 39.71130 -86.28831 792 ft 33 kts 225°
2026-04-26 01:38 39.70962 -86.29054 792 ft 34 kts 221°
2026-04-26 01:38 39.70781 -86.29275 793 ft 36 kts 225°
2026-04-26 01:38 39.70618 -86.29468 792 ft 21 kts 207°
2026-04-26 01:38 39.70483 -86.29556 794 ft 21 kts 223°
2026-04-26 01:39 39.70367 -86.29703 793 ft 24 kts 224°
2026-04-26 01:39 39.70240 -86.29867 793 ft 27 kts 224°
2026-04-26 01:39 39.70099 -86.30048 792 ft 29 kts 224°
2026-04-26 01:39 39.69974 -86.30205 791 ft 19 kts 225°
2026-04-26 01:40 39.69949 -86.30329 789 ft 14 kts 322°
2026-04-26 01:40 39.69962 -86.30343 789 ft 0 kts 313°
2026-04-26 01:41 39.69997 -86.30390 789 ft 12 kts 322°
2026-04-26 01:41 39.70079 -86.30378 789 ft 2 kts 46°
2026-04-26 01:41 39.70091 -86.30362 788 ft 2 kts 46°
2026-04-26 01:41 39.70114 -86.30331 789 ft 6 kts 45°
2026-04-26 01:42 39.70198 -86.30222 790 ft 48 kts 45°
2026-04-26 01:42 39.70692 -86.29591 832 ft 143 kts 43°
2026-04-26 01:42 39.71462 -86.28570 1565 ft 168 kts 46°
2026-04-26 01:42 39.72248 -86.27480 2592 ft 171 kts 46°
2026-04-26 01:43 39.73054 -86.26450 3645 ft 170 kts 45°
2026-04-26 01:43 39.73922 -86.25358 4446 ft 181 kts 45°
2026-04-26 01:43 39.74838 -86.24209 4802 ft 195 kts 45°
2026-04-26 01:43 39.75950 -86.22807 4912 ft 246 kts 45°
2026-04-26 01:44 39.77218 -86.21201 4903 ft 254 kts 45°
2026-04-26 01:44 39.78601 -86.19729 5030 ft 275 kts 29°
2026-04-26 01:44 39.80470 -86.19113 6411 ft 287 kts
2026-04-26 01:44 39.82363 -86.19591 8107 ft 286 kts 340°
2026-04-26 01:45 39.84115 -86.20713 9488 ft 292 kts 334°
2026-04-26 01:45 39.85925 -86.21941 10836 ft 299 kts 334°
2026-04-26 01:45 39.87773 -86.23189 12157 ft 304 kts 335°
2026-04-26 01:45 39.89634 -86.24445 13359 ft 311 kts 335°
2026-04-26 01:46 39.91576 -86.25757 14543 ft 317 kts 335°
2026-04-26 01:46 39.93509 -86.27062 15761 ft 319 kts 334°
2026-04-26 01:46 39.95472 -86.28388 16924 ft 322 kts 334°
2026-04-26 01:46 39.97460 -86.29732 18019 ft 325 kts 334°
2026-04-26 01:47 39.99411 -86.31225 19053 ft 329 kts 322°
2026-04-26 01:47 40.01054 -86.33279 20019 ft 333 kts 315°
2026-04-26 01:47 40.02674 -86.35457 20978 ft 336 kts 315°
2026-04-26 01:47 40.04301 -86.37633 21911 ft 339 kts 315°
2026-04-26 01:48 40.05956 -86.39848 22801 ft 342 kts 315°
2026-04-26 01:48 40.07619 -86.42075 23616 ft 347 kts 315°
2026-04-26 01:48 40.09295 -86.44318 24433 ft 350 kts 315°
2026-04-26 01:48 40.11010 -86.46616 25239 ft 353 kts 314°
2026-04-26 01:49 40.12730 -86.48921 25972 ft 357 kts 314°
2026-04-26 01:49 40.14488 -86.51279 26698 ft 363 kts 314°
2026-04-26 01:49 40.16230 -86.53618 27461 ft 365 kts 314°
2026-04-26 01:49 40.18029 -86.56035 28210 ft 368 kts 314°
2026-04-26 01:50 40.19836 -86.58464 28878 ft 372 kts 314°
2026-04-26 01:50 40.21662 -86.60920 29537 ft 375 kts 314°
2026-04-26 01:50 40.23489 -86.63379 30180 ft 378 kts 314°
2026-04-26 01:50 40.25369 -86.65912 30813 ft 381 kts 313°
2026-04-26 01:51 40.27226 -86.68415 31386 ft 384 kts 313°
2026-04-26 01:51 40.29095 -86.70937 31922 ft 387 kts 313°
2026-04-26 01:51 40.30971 -86.73470 32403 ft 391 kts 313°
2026-04-26 01:51 40.32875 -86.76045 32871 ft 394 kts 313°
2026-04-26 01:52 40.34775 -86.78614 33350 ft 396 kts 313°
2026-04-26 01:52 40.36688 -86.81202 33775 ft 399 kts 313°
2026-04-26 01:52 40.38650 -86.83861 33987 ft 407 kts 313°
2026-04-26 01:52 40.40651 -86.86575 34001 ft 419 kts 313°
2026-04-26 01:53 40.42697 -86.89353 33998 ft 430 kts 313°
2026-04-26 01:53 40.46925 -86.95099 34004 ft 443 kts 313°
2026-04-26 01:54 40.51237 -87.00970 33999 ft 445 kts 313°
2026-04-26 01:54 40.55904 -87.06284 34008 ft 446 kts 324°
2026-04-26 01:55 40.61435 -87.09965 34014 ft 448 kts 336°
2026-04-26 01:55 40.67234 -87.12972 34012 ft 447 kts 336°
2026-04-26 01:56 40.73095 -87.16022 34015 ft 447 kts 336°
2026-04-26 01:56 40.78885 -87.19043 34020 ft 447 kts 336°
2026-04-26 01:57 40.84688 -87.22076 34022 ft 448 kts 336°
2026-04-26 01:57 40.90488 -87.25113 34026 ft 448 kts 336°
2026-04-26 01:58 40.96276 -87.28149 34021 ft 448 kts 336°
2026-04-26 01:58 41.02067 -87.31194 34034 ft 447 kts 336°
2026-04-26 01:59 41.07869 -87.34249 34026 ft 447 kts 336°
2026-04-26 01:59 41.13672 -87.37312 34029 ft 447 kts 336°
2026-04-26 02:00 41.19434 -87.40358 34029 ft 446 kts 336°
2026-04-26 02:00 41.25205 -87.43415 34033 ft 446 kts 336°
2026-04-26 02:01 41.31006 -87.46494 34043 ft 446 kts 336°
2026-04-26 02:01 41.36789 -87.49570 34044 ft 447 kts 336°
2026-04-26 02:02 41.42549 -87.52639 34051 ft 447 kts 336°
2026-04-26 02:02 41.48416 -87.55341 34057 ft 449 kts 345°
2026-04-26 02:03 41.54684 -87.56239 34055 ft 454 kts 359°
2026-04-26 02:03 41.61035 -87.55316 34052 ft 456 kts
2026-04-26 02:04 41.67320 -87.54155 34058 ft 456 kts
2026-04-26 02:04 41.73589 -87.52996 34055 ft 456 kts
2026-04-26 02:05 41.79900 -87.51827 33813 ft 452 kts
2026-04-26 02:05 41.82971 -87.51255 33252 ft 445 kts
2026-04-26 02:05 41.86019 -87.50687 32696 ft 438 kts
2026-04-26 02:05 41.89021 -87.50129 32154 ft 431 kts
2026-04-26 02:06 41.91965 -87.49580 31611 ft 425 kts
2026-04-26 02:06 41.94858 -87.49046 31067 ft 418 kts
2026-04-26 02:06 41.97724 -87.49001 30487 ft 407 kts 351°
2026-04-26 02:06 42.00405 -87.49995 29849 ft 396 kts 335°
2026-04-26 02:07 42.02801 -87.51741 29179 ft 387 kts 328°
2026-04-26 02:07 42.05086 -87.53550 28488 ft 379 kts 329°
2026-04-26 02:07 42.07348 -87.55333 27787 ft 372 kts 329°
2026-04-26 02:07 42.09531 -87.57054 27095 ft 367 kts 329°
2026-04-26 02:08 42.11710 -87.58775 26394 ft 361 kts 328°
2026-04-26 02:08 42.13855 -87.60469 25691 ft 357 kts 328°
2026-04-26 02:08 42.15990 -87.62157 24991 ft 353 kts 328°
2026-04-26 02:08 42.18099 -87.63827 24302 ft 350 kts 328°
2026-04-26 02:09 42.20167 -87.65469 23631 ft 349 kts 327°
2026-04-26 02:09 42.22253 -87.67123 22964 ft 349 kts 327°
2026-04-26 02:09 42.24325 -87.68767 22316 ft 347 kts 327°
2026-04-26 02:09 42.26391 -87.70407 21682 ft 345 kts 327°
2026-04-26 02:10 42.28462 -87.72052 21046 ft 343 kts 327°
2026-04-26 02:10 42.30483 -87.73658 20356 ft 340 kts 327°
2026-04-26 02:10 42.32509 -87.75269 19587 ft 339 kts 327°
2026-04-26 02:10 42.34558 -87.76901 18811 ft 338 kts 327°
2026-04-26 02:11 42.36572 -87.78505 18065 ft 337 kts 327°
2026-04-26 02:11 42.38573 -87.80100 17392 ft 333 kts 327°
2026-04-26 02:11 42.40536 -87.81666 16747 ft 329 kts 327°
2026-04-26 02:11 42.42506 -87.83238 16098 ft 325 kts 327°
2026-04-26 02:12 42.44431 -87.84776 15469 ft 321 kts 327°
2026-04-26 02:12 42.46320 -87.86286 14850 ft 317 kts 327°
2026-04-26 02:12 42.48204 -87.87794 14228 ft 313 kts 327°
2026-04-26 02:12 42.50063 -87.89283 13607 ft 310 kts 327°
2026-04-26 02:13 42.51901 -87.90756 13008 ft 306 kts 327°
2026-04-26 02:13 42.53720 -87.92214 12417 ft 301 kts 328°
2026-04-26 02:13 42.55518 -87.93658 11830 ft 297 kts 328°
2026-04-26 02:13 42.57255 -87.95052 11259 ft 293 kts 328°
2026-04-26 02:14 42.58983 -87.96442 10674 ft 288 kts 329°
2026-04-26 02:14 42.60712 -87.97832 10073 ft 284 kts 329°
2026-04-26 02:14 42.62378 -87.99172 9476 ft 281 kts 329°
2026-04-26 02:14 42.64055 -88.00523 8831 ft 279 kts 330°
2026-04-26 02:15 42.65713 -88.01860 8196 ft 277 kts 330°
2026-04-26 02:15 42.67348 -88.03178 7566 ft 274 kts 331°
2026-04-26 02:15 42.68979 -88.04494 6949 ft 270 kts 332°
2026-04-26 02:15 42.70548 -88.05763 6587 ft 262 kts 332°
2026-04-26 02:16 42.72140 -88.07048 6209 ft 266 kts 332°
2026-04-26 02:16 42.73736 -88.08338 5857 ft 268 kts 332°
2026-04-26 02:16 42.75341 -88.09635 5497 ft 267 kts 332°
2026-04-26 02:16 42.76923 -88.10916 5150 ft 267 kts 332°
2026-04-26 02:17 42.78523 -88.12212 4793 ft 267 kts 333°
2026-04-26 02:17 42.80103 -88.13492 4443 ft 266 kts 333°
2026-04-26 02:17 42.81708 -88.14793 4084 ft 266 kts 333°
2026-04-26 02:17 42.83292 -88.16019 3738 ft 263 kts 341°
2026-04-26 02:18 42.85036 -88.16552 3372 ft 254 kts
2026-04-26 02:18 42.86729 -88.16157 3049 ft 243 kts 28°
2026-04-26 02:18 42.87988 -88.14743 2983 ft 238 kts 58°
2026-04-26 02:18 42.88676 -88.12798 2992 ft 214 kts 70°
2026-04-26 02:19 42.89157 -88.11022 3013 ft 190 kts 71°
2026-04-26 02:19 42.89580 -88.09399 3007 ft 171 kts 71°
2026-04-26 02:19 42.89961 -88.07883 2991 ft 168 kts 72°
2026-04-26 02:19 42.90331 -88.06381 2954 ft 168 kts 72°
2026-04-26 02:20 42.90698 -88.04886 2733 ft 168 kts 71°
2026-04-26 02:20 42.91053 -88.03439 2558 ft 153 kts 71°
2026-04-26 02:20 42.91385 -88.02083 2335 ft 149 kts 71°
2026-04-26 02:20 42.91713 -88.00742 2123 ft 147 kts 71°
2026-04-26 02:21 42.92039 -87.99412 1924 ft 148 kts 71°
2026-04-26 02:21 42.92364 -87.98091 1725 ft 146 kts 71°
2026-04-26 02:21 42.92666 -87.96851 1514 ft 130 kts 70°
2026-04-26 02:21 42.92944 -87.95711 1374 ft 122 kts 70°
2026-04-26 02:22 42.93208 -87.94627 1222 ft 118 kts 70°
2026-04-26 02:22 42.93461 -87.93581 1057 ft 117 kts 70°
2026-04-26 02:22 42.93720 -87.92528 878 ft 117 kts 68°
2026-04-26 02:22 42.93982 -87.91465 725 ft 117 kts 69°
2026-04-26 02:23 42.94217 -87.90511 690 ft 96 kts 71°
2026-04-26 02:23 42.94390 -87.89798 678 ft 40 kts 72°
2026-04-26 02:23 42.94437 -87.89604 677 ft 11 kts 72°
2026-04-26 02:23 42.94466 -87.89487 674 ft 13 kts 85°
2026-04-26 02:24 42.94510 -87.89278 673 ft 36 kts 68°
2026-04-26 02:24 42.94594 -87.88965 673 ft 21 kts 71°
2026-04-26 02:24 42.94656 -87.88866 673 ft 9 kts 355°
2026-04-26 02:24 42.94675 -87.88871 673 ft 4 kts 346°
2026-04-26 02:25 42.94709 -87.88887 673 ft 0 kts 341°
2026-04-26 02:25 42.94717 -87.88891 673 ft 1 kts 341°
2026-04-26 02:25 42.94728 -87.88896 673 ft 2 kts 341°
2026-04-26 02:25 42.94730 -87.88897 673 ft 1 kts 340°
2026-04-26 02:26 42.94741 -87.88902 673 ft 0 kts 340°
2026-04-26 02:26 42.94746 -87.88913 673 ft 2 kts 275°
2026-04-26 02:26 42.94708 -87.88999 673 ft 3 kts 236°
2026-04-26 02:27 42.94668 -87.89127 673 ft 21 kts 251°
2026-04-26 02:27 42.94635 -87.89267 673 ft 10 kts 251°
2026-04-26 02:27 42.94621 -87.89323 673 ft 5 kts 251°
2026-04-26 02:27 42.94606 -87.89390 673 ft 9 kts 269°
2026-04-26 02:28 42.94616 -87.89506 673 ft 14 kts 279°
2026-04-26 02:28 42.94635 -87.89632 673 ft 11 kts 319°
2026-04-26 02:28 42.94733 -87.89628 673 ft 19 kts
2026-04-26 02:28 42.94883 -87.89604 672 ft 26 kts
2026-04-26 02:29 42.95063 -87.89572 670 ft 19 kts
2026-04-26 02:29 42.95151 -87.89568 672 ft 7 kts 324°
2026-04-26 02:29 42.95215 -87.89669 671 ft 18 kts 314°
2026-04-26 02:29 42.95312 -87.89811 670 ft 15 kts 311°
2026-04-26 02:30 42.95334 -87.89922 670 ft 15 kts 248°
2026-04-26 02:30 42.95284 -87.90128 670 ft 25 kts 252°
2026-04-26 02:30 42.95244 -87.90318 671 ft 12 kts 251°
2026-04-26 02:30 42.95217 -87.90431 673 ft 13 kts 259°
2026-04-26 02:31 42.95284 -87.90522 673 ft 16 kts 347°
2026-04-26 02:31 42.95407 -87.90530 672 ft 15 kts 352°
2026-04-26 02:31 42.95438 -87.90653 673 ft 13 kts 274°
2026-04-26 02:31 42.95439 -87.90702 674 ft 0 kts 270°